(98374) = 1995 DY9 = 2000 TD23

Discovered at Socorro on 2000-10-01 by LINEAR.

Orbit

Orbit type: Main Belt

Note: WebGL enabled browser required.

epoch2022-01-21.0
epoch JD2459600.5
perihelion date2018-10-10.61358
perihelion JD2458402.11358
argument of perihelion (°)245.96325
ascending node (°)234.26067
inclination (°)0.17566
eccentricity0.1060191
perihelion distance (AU)2.0299452
Tisserand w.r.t. Jupiter3.6
ΔV w.r.t. Earth (km/sec)8.8
semimajor axis (AU)2.2706806
mean anomaly (°)345.19670
mean daily motion (°/day)0.28805130
aphelion distance (AU)2.511
period (years)3.42
P-vector [x]-0.50337734
P-vector [y]0.79387531
P-vector [z]0.34113524
Q-vector [x]-0.86406311
Q-vector [y]-0.46134716
Q-vector [z]-0.20137958
absolute magnitude16.96
phase slope0.15
uncertainty0
referenceMPO 693346
observations used674
oppositions17
arc length (days)11449
first opposition used1990
last opposition used2022
residual rms (arc-secs)0.73
perturbers coarse indicatorM-v
perturbers precise indicator003Ek
first observation date used1990-11-22.0
last observation date used2022-03-28.0
computer namePan
JD of orbit computation2456966.732833
perihelion JD uncertainty (days)6.9562E-05
argument of perihelion uncertainty (°)1.2352E-03
ascending node uncertainty (°)1.2350E-03
inclination uncertainty (°)3.5625E-06
eccentricity uncertainty 3.0280E-08
perihelion distance uncertainty (AU)6.9174E-08
Minimum Orbit Intersection Distances (in AU)
for orbit epoch: 2459200.5, reference: E2021-B10
Mercury1.70275
Venus1.31338
Earth1.04674
Mars0.38809
Jupiter2.54191
Saturn7.00674
Uranus16.2052
Neptune27.5083

Observations

687 total observations over interval: 1990 11 22.29012 – 2022 03 28.127294
These data are available for download (format description).

Date (UT) J2000 RA J2000 Dec Magn Location Ref
1990 11 22.29012 03 27 37.72 +18 50 10.3 20.5 V 691 – Steward Observatory, Kitt Peak-Spacewatch MPS 78023
1990 11 22.31180 03 27 36.25 +18 50 04.8 20.4 V 691 – Steward Observatory, Kitt Peak-Spacewatch MPS 78023
1990 11 22.33364 03 27 34.78 +18 49 59.8 20.3 V 691 – Steward Observatory, Kitt Peak-Spacewatch MPS 78023
1995 02 25.37469 11 20 59.37 +03 51 53.2   691 – Steward Observatory, Kitt Peak-Spacewatch MPC 25006
1995 02 25.39603 11 20 58.17 +03 52 00.6 19.4 V 691 – Steward Observatory, Kitt Peak-Spacewatch MPC 25006
1995 02 25.41756 11 20 56.95 +03 52 08.0   691 – Steward Observatory, Kitt Peak-Spacewatch MPC 25006
1995 03 02.38234 11 16 22.08 +04 21 19.4 19.2 V 691 – Steward Observatory, Kitt Peak-Spacewatch MPC 25006
1995 03 02.40368 11 16 20.77 +04 21 27.2   691 – Steward Observatory, Kitt Peak-Spacewatch MPC 25006
1995 03 02.42496 11 16 19.50 +04 21 34.5   691 – Steward Observatory, Kitt Peak-Spacewatch MPC 25006
2000 10 01.24878 00 56 34.39 +06 16 16.7 20.0   704 – Lincoln Laboratory ETS, New Mexico MPS 20307
2000 10 01.26389 00 56 33.44 +06 16 12.2 20.3   704 – Lincoln Laboratory ETS, New Mexico MPS 20307
2000 10 01.27900 00 56 32.53 +06 16 06.0 20.2   704 – Lincoln Laboratory ETS, New Mexico MPS 20307
2000 10 01.30096 00 56 31.26 +06 15 57.7 19.9   704 – Lincoln Laboratory ETS, New Mexico MPS 20307
2000 10 01.32039 00 56 30.08 +06 15 51.0 20.4   704 – Lincoln Laboratory ETS, New Mexico MPS 20307
2000 10 03.24855 00 54 39.09 +06 04 12.0 19.3   704 – Lincoln Laboratory ETS, New Mexico MPS 20307
2000 10 03.24867 00 54 39.00 +06 04 11.1 19.0   704 – Lincoln Laboratory ETS, New Mexico MPS 20307
2000 10 03.26418 00 54 38.13 +06 04 05.7 19.6   704 – Lincoln Laboratory ETS, New Mexico MPS 20307
2000 10 03.26430 00 54 38.19 +06 04 05.4 19.6   704 – Lincoln Laboratory ETS, New Mexico MPS 20307
2000 10 03.27970 00 54 37.22 +06 04 01.1 19.6   704 – Lincoln Laboratory ETS, New Mexico MPS 20307
2000 10 03.32176 00 54 34.58 +06 03 46.2 19.9   704 – Lincoln Laboratory ETS, New Mexico MPS 20307
2000 10 04.26005 00 53 40.20 +05 58 00.8 19.4   704 – Lincoln Laboratory ETS, New Mexico MPS 20307
2000 10 04.27584 00 53 39.29 +05 57 54.1 19.8   704 – Lincoln Laboratory ETS, New Mexico MPS 20307
2000 10 04.29089 00 53 38.37 +05 57 48.3 19.6   704 – Lincoln Laboratory ETS, New Mexico MPS 20307
2000 10 04.30583 00 53 37.44 +05 57 43.0 20.0   704 – Lincoln Laboratory ETS, New Mexico MPS 20307
2002 03 15.39438 13 09 35.43 -07 37 59.9 19.5   704 – Lincoln Laboratory ETS, New Mexico MPS 57065
2002 03 15.40861 13 09 34.84 -07 37 57.0 19.5   704 – Lincoln Laboratory ETS, New Mexico MPS 57065
2002 03 15.43877 13 09 33.46 -07 37 48.8 19.2   704 – Lincoln Laboratory ETS, New Mexico MPS 57065
2002 03 20.40773 13 05 38.73 -07 13 43.5 20.1 V 691 – Steward Observatory, Kitt Peak-Spacewatch MPS 54755
2002 03 20.42940 13 05 37.58 -07 13 36.6 19.7 V 691 – Steward Observatory, Kitt Peak-Spacewatch MPS 54755
2002 03 20.45099 13 05 36.48 -07 13 29.8 19.8 V 691 – Steward Observatory, Kitt Peak-Spacewatch MPS 54755
2002 03 23.35397 13 03 06.20 -06 57 57.5 18.8   704 – Lincoln Laboratory ETS, New Mexico MPS 54755
2002 03 23.36701 13 03 05.59 -06 57 53.2 19.7   704 – Lincoln Laboratory ETS, New Mexico MPS 54755
2002 03 23.38151 13 03 04.79 -06 57 48.8 19.6   704 – Lincoln Laboratory ETS, New Mexico MPS 54755
2002 03 23.39647 13 03 03.90 -06 57 42.0 19.4   704 – Lincoln Laboratory ETS, New Mexico MPS 54755
2002 03 23.40896 13 03 03.25 -06 57 37.7 19.5   704 – Lincoln Laboratory ETS, New Mexico MPS 54755
2002 04 04.29354 12 51 51.17 -05 47 07.5 19.1 V 691 – Steward Observatory, Kitt Peak-Spacewatch MPS 57065
2002 04 04.31622 12 51 49.75 -05 46 57.9 19.4 V 691 – Steward Observatory, Kitt Peak-Spacewatch MPS 57065
2002 04 04.33744 12 51 48.49 -05 46 50.8 19.5 V 691 – Steward Observatory, Kitt Peak-Spacewatch MPS 57065
2002 04 09.19826 12 47 10.13 -05 17 09.8 19.6 V 691 – Steward Observatory, Kitt Peak-Spacewatch MPS 54755
2002 04 09.21992 12 47 08.87 -05 17 02.1 19.9 V 691 – Steward Observatory, Kitt Peak-Spacewatch MPS 54755
2002 04 09.24155 12 47 07.59 -05 16 54.1 20.0 V 691 – Steward Observatory, Kitt Peak-Spacewatch MPS 54755
2002 04 10.31043 12 46 07.42 -05 10 28.9 19.4   704 – Lincoln Laboratory ETS, New Mexico MPS 54755
2002 04 10.32217 12 46 06.75 -05 10 25.0 19.5   704 – Lincoln Laboratory ETS, New Mexico MPS 54755
2002 04 10.33357 12 46 06.08 -05 10 21.0 19.6   704 – Lincoln Laboratory ETS, New Mexico MPS 54755
2002 04 10.34495 12 46 05.46 -05 10 17.1 19.7   704 – Lincoln Laboratory ETS, New Mexico MPS 54755
2002 04 12.29956 12 44 17.96 -04 58 43.1 19.1   704 – Lincoln Laboratory ETS, New Mexico MPS 54755
2002 04 12.31400 12 44 17.14 -04 58 38.2 19.6   704 – Lincoln Laboratory ETS, New Mexico MPS 54755
2002 04 12.32928 12 44 16.27 -04 58 32.7 19.7   704 – Lincoln Laboratory ETS, New Mexico MPS 54755
2002 04 12.34482 12 44 15.34 -04 58 26.8 19.4   704 – Lincoln Laboratory ETS, New Mexico MPS 54755
2002 04 14.26597 12 42 32.74 -04 47 21.9 18.7   704 – Lincoln Laboratory ETS, New Mexico MPS 54755
2002 04 14.28003 12 42 31.95 -04 47 17.0 19.2   704 – Lincoln Laboratory ETS, New Mexico MPS 54755
2002 04 14.29409 12 42 31.34 -04 47 11.9 20.6   704 – Lincoln Laboratory ETS, New Mexico MPS 54755
2002 04 14.30816 12 42 30.40 -04 47 06.9 19.2   704 – Lincoln Laboratory ETS, New Mexico MPS 54755
2002 04 14.32226 12 42 29.63 -04 47 02.5 19.1   704 – Lincoln Laboratory ETS, New Mexico MPS 54755
2002 04 15.15386 12 41 46.69 -04 42 21.0 19.9   644 – Palomar Mountain/NEAT MPS 54495
2002 04 15.17911 12 41 45.32 -04 42 12.5 20.4   644 – Palomar Mountain/NEAT MPS 54495
2002 04 15.20074 12 41 44.20 -04 42 05.4 20.0   644 – Palomar Mountain/NEAT MPS 54495
2002 04 29.21110 12 31 43.99 -03 36 22.9 20.6   644 – Palomar Mountain/NEAT MPS 57065
2002 04 29.23129 12 31 43.31 -03 36 18.6 19.9   644 – Palomar Mountain/NEAT MPS 57065
2002 04 29.25154 12 31 42.61 -03 36 14.4 20.1   644 – Palomar Mountain/NEAT MPS 57065
2003 09 04.15913 21 14 05.00 -15 43 50.1 21.0 V 691 – Steward Observatory, Kitt Peak-Spacewatch MPS 83971
2003 09 04.18815 21 14 03.62 -15 43 56.1 21.5 V 691 – Steward Observatory, Kitt Peak-Spacewatch MPS 83971
2003 09 04.21697 21 14 02.22 -15 44 02.3 21.2 V 691 – Steward Observatory, Kitt Peak-Spacewatch MPS 83971
2004 12 11.10436 08 11 45.19 +19 46 33.1 19.1 R 599 – Campo Imperatore-CINEOS MPS 121622
2004 12 11.11593 08 11 44.98 +19 46 33.4 19.5 R 599 – Campo Imperatore-CINEOS MPS 121622
2004 12 11.12752 08 11 44.82 +19 46 33.6 19.7 R 599 – Campo Imperatore-CINEOS MPS 121622
2004 12 11.13910 08 11 44.63 +19 46 34.1 19.3 R 599 – Campo Imperatore-CINEOS MPS 121622
2004 12 13.01032 08 11 16.34 +19 47 44.9 19.3 R 599 – Campo Imperatore-CINEOS MPS 121622
2004 12 13.02190 08 11 16.11 +19 47 45.7 19.1 R 599 – Campo Imperatore-CINEOS MPS 121622
2004 12 13.03346 08 11 15.89 +19 47 46.1 19.3 R 599 – Campo Imperatore-CINEOS MPS 121622
2004 12 13.04347 08 11 15.67 +19 47 46.5 19.0 R 599 – Campo Imperatore-CINEOS MPS 121622
2004 12 18.33127 08 09 11.18 +19 53 22.0 18.9 R G96 – Mt. Lemmon Survey MPS 122629
2004 12 18.34112 08 09 10.87 +19 53 22.8 19.5 R G96 – Mt. Lemmon Survey MPS 122629
2004 12 18.35091 08 09 10.53 +19 53 24.1 19.1 R G96 – Mt. Lemmon Survey MPS 122629
2004 12 18.36079 08 09 10.22 +19 53 24.7 18.6 R G96 – Mt. Lemmon Survey MPS 122629
2005 01 01.40150 07 58 57.14 +20 21 31.4 17.9 R 703 – Catalina Sky Survey MPS 123454
2005 01 01.40793 07 58 56.57 +20 21 33.1 18.0 R 703 – Catalina Sky Survey MPS 123454
2005 01 01.41433 07 58 56.37 +20 21 33.2 17.9 R 703 – Catalina Sky Survey MPS 123454
2005 01 01.42076 07 58 56.01 +20 21 34.9 19.4 R 703 – Catalina Sky Survey MPS 123455
2005 01 06.35883 07 54 03.31 +20 34 33.1 19.3   704 – Lincoln Laboratory ETS, New Mexico MPS 123455
2005 01 06.37370 07 54 02.32 +20 34 35.4 19.1   704 – Lincoln Laboratory ETS, New Mexico MPS 123455
2005 01 06.38716 07 54 01.42 +20 34 35.7 19.1   704 – Lincoln Laboratory ETS, New Mexico MPS 123455
2005 01 06.40040 07 54 00.59 +20 34 39.7 19.2   704 – Lincoln Laboratory ETS, New Mexico MPS 123455
2005 01 16.18350 07 43 23.09 +21 01 22.9 18.7 V 691 – Steward Observatory, Kitt Peak-Spacewatch MPS 124592
